[[{"header":{"parameterUnit":"m.s-1","parameterCategory":2,"la1":30.2991,"la2":30.254,"lo1":-89.0895,"lo2":-89.0444,"dy":0.0017,"dx":0.0017,"nx":28,"ny":28,"refTime":"2024-06-13T09:00:00:Z","depth":"0","parameterNumber":2,"parameterNumberName":"U-component_of_CURRENTS"},"data":[0,0,0,0,0,0,0,0,0,0,0,0,0,0,0,0,0,0,0,0,0,0,0,0,0,0,0,0,0,0,0,0,0,0,0,0,0,0,0,0,0,0,0,0,0,0,0,0,0,0,0,0,0,0,0,0,0,0,0.2665,0.2667,0,0.2818,0.282,0.2822,0.289,0.289,0.289,0.289,0.2964,0.2966,0.2968,0,0,0,0,0,0,0,0,0,0,0,0,0,0.2525,0.2526,0.2665,0.2667,0.2669,0.2818,0.282,0.2822,0.289,0.289,0.289,0.289,0.2964,0.2966,0.2968,0,0,0,0,0,0,0,0,0,0,0,0,0,0.262,0.2527,0.2664,0.2722,0.2729,0.2818,0.282,0.2823,0.289,0.289,0.289,0.289,0.2963,0.2966,0.2969,0.2988,0,0,0.2978,0.2979,0,0,0,0,0,0,0,0,0.2615,0.2625,0.2712,0.2718,0.2726,0.2837,0.2798,0.2875,0.289,0.2827,0.289,0.289,0.2915,0.2922,0.295,0.2991,0.2994,0.2978,0.298,0.2981,0.2982,0,0,0,0,0,0,0,0.2608,0.262,0.2724,0.2714,0.2723,0.2773,0.2786,0.2814,0.2867,0.2833,0.2838,0.2858,0.2919,0.2947,0.2952,0.2996,0.2978,0.2981,0.2982,0.2984,0.3051,0.3051,0,0,0,0,0,0,0.2588,0.2613,0.2719,0.2728,0.2671,0.2775,0.2789,0.28,0.2868,0.288,0.2858,0.2861,0.2942,0.2948,0.2955,0.299,0.2981,0.2984,0.2986,0.3051,0.3051,0.3051,0,0,0,0,0,0,0.2584,0.2596,0.2713,0.2676,0.2695,0.2777,0.2789,0.2803,0.2828,0.2889,0.2899,0.2868,0.2942,0.295,0.3,0.2993,0.2985,0.2988,0.3051,0.3051,0.3051,0.3055,0,0,0,0,0,0,0.2579,0.2593,0.2592,0.2674,0.2696,0.2761,0.279,0.2806,0.2841,0.2846,0.2901,0.2908,0.2943,0.2995,0.3003,0.2997,0.299,0.3051,0.3051,0.3051,0.3055,0.3055,0.3055,0,0,0,0,0,0.2574,0.257,0.259,0.2604,0.2692,0.2762,0.2777,0.2835,0.2841,0.2855,0.2906,0.2906,0.2999,0.2999,0.3008,0.3002,0.3051,0.3051,0.3051,0.3054,0.3055,0.3055,0,0,0,0,0,0,0.2495,0.2579,0.2603,0.2621,0.2685,0.2774,0.2793,0.2827,0.2879,0.2876,0.2926,0.2939,0.2979,0.2987,0.2985,0.3018,0.3016,0.3018,0.3016,0.3016,0.3016,0.3003,0.2993,0,0,0,0,0,0.2479,0.2509,0.2589,0.2605,0.2632,0.2708,0.2741,0.2779,0.2839,0.2861,0.2906,0.2943,0.2986,0.2999,0.3039,0.306,0.307,0.3053,0.3053,0.3054,0.3047,0.3075,0.3077,0.3051,0.3051,0.3051,0,0,0.2452,0.2505,0.2518,0.2592,0.2644,0.2694,0.2727,0.2772,0.2814,0.2858,0.2917,0.2953,0.2995,0.3035,0.3048,0.3039,0.3067,0.3054,0.3054,0.3047,0.3075,0.3077,0.308,0.3051,0.3051,0.3051,0,0,0.243,0.2458,0.2484,0.2541,0.262,0.2669,0.2677,0.2761,0.2796,0.2856,0.2901,0.2937,0.2995,0.3034,0.3056,0.3074,0.3077,0.3068,0.3051,0.3078,0.308,0.3082,0.3101,0.3105,0.3056,0.3056,0.3056,0,0.239,0.2438,0.25,0.255,0.2589,0.2654,0.2687,0.2742,0.2833,0.2853,0.2867,0.2958,0.2996,0.3044,0.3059,0.3074,0.3086,0.3051,0.3079,0.3081,0.3084,0.3102,0.3106,0.3056,0.3056,0.3056,0.3056,0,0.241,0.2445,0.2462,0.2548,0.2596,0.263,0.2715,0.2752,0.2788,0.2839,0.2891,0.2955,0.3001,0.3013,0.3049,0.3077,0.308,0.3088,0.308,0.3087,0.3105,0.311,0.3056,0.3056,0.3056,0.3056,0,0,0.2309,0.2447,0.245,0.2488,0.2592,0.2628,0.269,0.2756,0.2778,0.2849,0.2877,0.2959,0.2977,0.3004,0.3041,0.3061,0.31,0.3076,0.3078,0.3096,0.3154,0.3046,0.304,0.3115,0.3115,0.3116,0.3162,0,0.2295,0.238,0.2452,0.2508,0.2548,0.2623,0.2675,0.2741,0.2791,0.2836,0.2889,0.2934,0.298,0.2992,0.3029,0.3087,0.3111,0.3087,0.3142,0.3144,0.3048,0.3041,0.2839,0.2852,0.3166,0.3167,0.3167,0,0.2277,0.2343,0.2403,0.2489,0.2509,0.2545,0.2608,0.2665,0.2746,0.2783,0.2834,0.2886,0.2949,0.2972,0.3072,0.3054,0.3105,0.314,0.3143,0.304,0.3042,0.2895,0.2849,0.2752,0.3174,0.3174,0.3173,0,0.2185,0.2287,0.233,0.2368,0.2487,0.2501,0.2545,0.2629,0.2663,0.274,0.2755,0.285,0.2878,0.2965,0.3048,0.3069,0.3129,0.317,0.312,0.3114,0.2948,0.2925,0.281,0.3229,0.3229,0.3229,0.3229,0,0.2142,0.2164,0.2284,0.2315,0.233,0.2429,0.2441,0.2504,0.2574,0.2602,0.271,0.2736,0.2876,0.2933,0.3027,0.3065,0.3118,0.3108,0.3112,0.2942,0.2918,0.2832,0.2832,0.323,0.323,0.323,0.3229,0,0.2043,0.2129,0.2172,0.2277,0.2295,0.2301,0.2368,0.239,0.2462,0.2498,0.2519,0.2644,0.2722,0.2833,0.2956,0.3004,0.2964,0.307,0.285,0.2826,0.269,0.2698,0.2534,0.2481,0.3039,0.3036,0.3034,0,0.2005,0.2027,0.2122,0.2143,0.2184,0.221,0.2235,0.2317,0.2346,0.2438,0.245,0.2527,0.2585,0.2699,0.2763,0.286,0.284,0.2741,0.2746,0.2629,0.2645,0.2583,0.2549,0.2543,0.2537,0.2532,0.2528,0,0.1933,0.1969,0.2028,0.2069,0.209,0.2108,0.2145,0.2142,0.2243,0.2264,0.2313,0.2357,0.2445,0.2434,0.252,0.2576,0.2554,0.2644,0.2578,0.2277,0.2147,0.2113,0.2578,0.2485,0.2489,0.2492,0.2495,0.2496,0.1872,0.189,0.1976,0.1998,0.202,0.2014,0.1985,0.2029,0.203,0.2043,0.2138,0.2143,0.2156,0.2241,0.2277,0.2156,0.227,0.2109,0.2144,0.2103,0.1979,0.2334,0.2209,0.2212,0.2214,0.2216,0.2218,0,0.1813,0.1865,0.1902,0.1934,0.1922,0.1949,0.1941,0.1894,0.1852,0.1883,0.1889,0.1835,0.1769,0.1808,0.1716,0.1661,0.1636,0.1617,0.1485,0.1499,0.1842,0.1744,0.1441,0.1441,0.1441,0.1441,0.1442,0.1442,0.1794,0.1832,0.1865,0.184,0.1842,0.1763,0.1726,0.1663,0.1651,0.1555,0.1508,0.1519,0.1507,0.1371,0.1254,0.1243,0.1208,0.1081,0.1205,0.1436,0.1485,0.1531,0.1435,0.1073,0.1073,0.073,0.0728,0.0726]},{"header":{"parameterUnit":"m.s-1","parameterCategory":2,"la1":30.2991,"la2":30.254,"lo1":-89.0895,"lo2":-89.0444,"dy":0.0017,"dx":0.0017,"nx":28,"ny":28,"refTime":"2024-06-13T09:00:00:Z","depth":"0","parameterNumber":3,"parameterNumberName":"V-component_of_CURRENTS"},"data":[0,0,0,0,0,0,0,0,0,0,0,0,0,0,0,0,0,0,0,0,0,0,0,0,0,0,0,0,0,0,0,0,0,0,0,0,0,0,0,0,0,0,0,0,0,0,0,0,0,0,0,0,0,0,0,0,0,0,-0.0728,-0.073,0,-0.0891,-0.0893,-0.0895,-0.0961,-0.096,-0.096,-0.096,-0.1037,-0.1039,-0.1041,0,0,0,0,0,0,0,0,0,0,0,0,0,-0.0425,-0.043,-0.0727,-0.073,-0.0732,-0.0891,-0.0893,-0.0895,-0.0961,-0.096,-0.096,-0.096,-0.1037,-0.1039,-0.1041,0,0,0,0,0,0,0,0,0,0,0,0,0,-0.0566,-0.0432,-0.0727,-0.0787,-0.0794,-0.0891,-0.0893,-0.0895,-0.0961,-0.096,-0.096,-0.096,-0.1036,-0.1039,-0.1042,-0.1062,0,0,-0.1051,-0.1053,0,0,0,0,0,0,0,0,-0.0558,-0.0576,-0.0776,-0.0783,-0.0792,-0.0909,-0.0815,-0.0948,-0.0961,-0.0893,-0.096,-0.096,-0.0989,-0.0996,-0.1022,-0.1066,-0.1069,-0.1052,-0.1053,-0.1055,-0.1056,0,0,0,0,0,0,0,-0.0548,-0.057,-0.0788,-0.0779,-0.0788,-0.079,-0.081,-0.084,-0.0935,-0.0899,-0.0905,-0.093,-0.0992,-0.1019,-0.1024,-0.107,-0.1052,-0.1054,-0.1056,-0.1057,-0.1099,-0.1098,0,0,0,0,0,0,-0.054,-0.0561,-0.0783,-0.0794,-0.0677,-0.0796,-0.0818,-0.0868,-0.0936,-0.0949,-0.093,-0.0932,-0.1014,-0.1021,-0.1027,-0.1032,-0.1055,-0.1058,-0.106,-0.11,-0.1099,-0.1098,0,0,0,0,0,0,-0.0533,-0.0559,-0.0777,-0.0682,-0.071,-0.0802,-0.0857,-0.0871,-0.0901,-0.0961,-0.0971,-0.0945,-0.1014,-0.1023,-0.1049,-0.1036,-0.1059,-0.1062,-0.1101,-0.11,-0.1099,-0.1055,0,0,0,0,0,0,-0.0524,-0.0556,-0.0575,-0.0683,-0.0716,-0.0832,-0.0858,-0.0875,-0.0918,-0.0923,-0.0978,-0.0985,-0.1015,-0.1044,-0.1052,-0.104,-0.1064,-0.1102,-0.11,-0.1099,-0.1057,-0.1052,-0.1048,0,0,0,0,0,-0.0513,-0.0538,-0.0575,-0.0601,-0.0745,-0.0833,-0.0849,-0.091,-0.0919,-0.0934,-0.0964,-0.0984,-0.104,-0.1047,-0.1056,-0.1045,-0.1102,-0.1101,-0.1099,-0.1059,-0.1053,-0.1048,0,0,0,0,0,0,-0.0394,-0.0551,-0.0593,-0.066,-0.0741,-0.0845,-0.0863,-0.0906,-0.0945,-0.0941,-0.0986,-0.0996,-0.1011,-0.1033,-0.1039,-0.105,-0.107,-0.107,-0.1036,-0.1031,-0.1026,-0.1004,-0.1067,0,0,0,0,0,-0.0385,-0.0457,-0.0586,-0.0632,-0.0675,-0.0767,-0.0804,-0.0852,-0.091,-0.0928,-0.0968,-0.0994,-0.1012,-0.1025,-0.105,-0.1064,-0.1046,-0.1058,-0.1053,-0.1049,-0.1035,-0.1002,-0.0993,-0.1093,-0.1093,-0.1093,0,0,-0.0342,-0.0442,-0.0476,-0.0612,-0.0677,-0.0743,-0.0788,-0.0849,-0.0884,-0.0927,-0.0965,-0.0985,-0.1012,-0.1026,-0.1033,-0.1043,-0.1007,-0.1047,-0.1043,-0.1032,-0.0999,-0.0989,-0.098,-0.1091,-0.1092,-0.1092,0,0,-0.0307,-0.0393,-0.0446,-0.0527,-0.0643,-0.0706,-0.0723,-0.0831,-0.0858,-0.0907,-0.0929,-0.0934,-0.099,-0.0994,-0.1003,-0.0986,-0.0985,-0.0997,-0.0958,-0.0925,-0.0917,-0.0909,-0.0853,-0.0841,-0.0993,-0.0993,-0.0993,0,-0.0245,-0.0352,-0.0461,-0.0539,-0.0592,-0.0689,-0.0735,-0.0787,-0.088,-0.0883,-0.0909,-0.0941,-0.0968,-0.0955,-0.0953,-0.0974,-0.0951,-0.0979,-0.0918,-0.091,-0.0903,-0.0848,-0.0835,-0.0991,-0.0991,-0.0992,-0.0992,0,-0.0269,-0.035,-0.0381,-0.0523,-0.0582,-0.0638,-0.0737,-0.0771,-0.0811,-0.0854,-0.0856,-0.0887,-0.0897,-0.0906,-0.0932,-0.0889,-0.0887,-0.0917,-0.093,-0.089,-0.0835,-0.0822,-0.0988,-0.0989,-0.0989,-0.099,0,0,-0.0146,-0.0357,-0.0367,-0.0424,-0.0581,-0.0622,-0.0676,-0.0739,-0.0736,-0.0803,-0.0782,-0.0817,-0.082,-0.0829,-0.0846,-0.0824,-0.0754,-0.0849,-0.0848,-0.0789,-0.0661,-0.062,-0.0602,-0.0778,-0.0776,-0.0775,-0.0636,0,-0.0127,-0.0246,-0.036,-0.0433,-0.0496,-0.0597,-0.0631,-0.0688,-0.0725,-0.0727,-0.0743,-0.0735,-0.0796,-0.0776,-0.077,-0.0751,-0.0722,-0.0788,-0.0713,-0.071,-0.0675,-0.0586,-0.0558,-0.0429,-0.0624,-0.0622,-0.062,0,-0.0119,-0.0206,-0.0278,-0.0398,-0.0426,-0.0465,-0.0506,-0.0552,-0.0588,-0.0607,-0.0612,-0.0634,-0.0604,-0.0663,-0.0612,-0.0653,-0.0653,-0.0647,-0.0642,-0.0609,-0.0644,-0.0505,-0.0398,-0.0448,-0.06,-0.0602,-0.0603,0,0.0014,-0.014,-0.0182,-0.0235,-0.0381,-0.0386,-0.0436,-0.049,-0.0497,-0.0507,-0.0487,-0.0495,-0.0456,-0.0471,-0.0486,-0.0539,-0.0419,-0.0489,-0.0448,-0.0444,-0.0405,-0.0402,-0.0332,-0.0447,-0.0447,-0.0448,-0.0448,0,0.0057,0.0023,-0.0116,-0.0145,-0.0155,-0.0276,-0.0261,-0.0315,-0.0341,-0.0313,-0.0395,-0.0345,-0.0408,-0.0374,-0.0417,-0.0365,-0.036,-0.0403,-0.0396,-0.0387,-0.0384,-0.0417,-0.0461,-0.0443,-0.0444,-0.0445,-0.0446,0,0.0178,0.0078,0.0027,-0.0084,-0.0107,-0.0103,-0.0174,-0.0162,-0.0199,-0.0155,-0.0145,-0.0187,-0.0143,-0.0196,-0.018,-0.0235,-0.021,-0.0211,-0.0184,-0.0177,-0.0204,-0.0247,-0.0113,-0.0116,-0.0127,-0.0125,-0.0123,0,0.0211,0.0196,0.0107,0.0093,0.0042,0.002,0.0005,-0.0071,-0.0059,-0.0047,-0.0001,0.0035,0.0069,0.0104,0.0026,0.0006,-0.009,-0.0004,-0.011,-0.0159,-0.0202,-0.0221,-0.0237,-0.0031,-0.0029,-0.0027,-0.0026,0,0.0285,0.0269,0.0228,0.0206,0.0191,0.0166,0.0146,0.0173,0.0118,0.0167,0.0237,0.0275,0.0284,0.0278,0.022,0.0169,-0.0008,0.0035,-0.0023,-0.0107,-0.0113,-0.0129,-0.0163,-0.0009,-0.001,-0.0012,-0.0013,-0.0013,0.0355,0.0358,0.0318,0.0303,0.0292,0.03,0.0307,0.031,0.0355,0.0406,0.0435,0.051,0.0458,0.0384,0.0311,0.0169,0.0142,0.0096,0.0058,0.0052,0.0023,0.0043,0.0196,0.0196,0.0195,0.0195,0.0195,0,0.0408,0.0405,0.0404,0.0381,0.04,0.0368,0.0382,0.0395,0.0468,0.0549,0.0619,0.067,0.061,0.0475,0.0303,0.0201,0.0134,0.0129,0.0081,0.0066,0.0088,0.0061,0.02,0.02,0.02,0.02,0.02,0.02,0.043,0.0447,0.0441,0.0473,0.0472,0.0487,0.05,0.0531,0.0578,0.0676,0.0744,0.0787,0.0706,0.0433,0.0226,0.0161,0.0066,0.0089,0.0034,-0.0009,-0.0017,-0.0025,-0.0062,0.005,0.005,0.0029,0.0029,0.0028]}],[{"header":{"parameterUnit":"m.s-1","parameterCategory":2,"la1":30.2991,"la2":30.254,"lo1":-89.0895,"lo2":-89.0444,"dy":0.0017,"dx":0.0017,"nx":28,"ny":28,"refTime":"2024-06-13T09:00:00:Z","depth":"2","parameterNumber":2,"parameterNumberName":"U-component_of_CURRENTS"},"data":[0,0,0,0,0,0,0,0,0,0,0,0,0,0,0,0,0,0,0,0,0,0,0,0,0,0,0,0,0,0,0,0,0,0,0,0,0,0,0,0,0,0,0,0,0,0,0,0,0,0,0,0,0,0,0,0,0,0,0.1797,0.1797,0,0.1839,0.1839,0.184,0.1853,0.1853,0.1853,0.1854,0.1848,0.1848,0.1848,0,0,0,0,0,0,0,0,0,0,0,0,0,0.1783,0.1783,0.1797,0.1797,0.1798,0.1839,0.1839,0.184,0.1853,0.1853,0.1853,0.1854,0.1848,0.1848,0.1848,0,0,0,0,0,0,0,0,0,0,0,0,0,0.18,0.1783,0.1796,0.1813,0.1815,0.1839,0.1839,0.184,0.1853,0.1853,0.1853,0.1854,0.1849,0.1848,0.1848,0.184,0,0,0.1846,0.1846,0,0,0,0,0,0,0,0,0.1799,0.18,0.181,0.1812,0.1814,0.1845,0.1833,0.1839,0.1853,0.1834,0.1854,0.1854,0.1845,0.1845,0.1847,0.184,0.184,0.1846,0.1846,0.1846,0.1846,0,0,0,0,0,0,0,0.1798,0.1798,0.1809,0.1811,0.1814,0.1838,0.184,0.1835,0.1834,0.1836,0.1838,0.1849,0.1845,0.1848,0.1847,0.184,0.1846,0.1846,0.1846,0.1846,0.1873,0.1874,0,0,0,0,0,0,0.1797,0.1797,0.1808,0.1811,0.1812,0.1838,0.184,0.1831,0.1835,0.1837,0.1849,0.185,0.1848,0.1848,0.1847,0.1913,0.1846,0.1845,0.1845,0.1872,0.1873,0.1874,0,0,0,0,0,0,0.1796,0.1797,0.1806,0.181,0.1813,0.1838,0.1829,0.1832,0.1855,0.1846,0.1847,0.187,0.1849,0.1848,0.1867,0.191,0.1845,0.1845,0.1871,0.1872,0.1874,0.1996,0,0,0,0,0,0,0.1795,0.1795,0.1795,0.1809,0.1813,0.1831,0.1829,0.1833,0.1862,0.1863,0.1864,0.1863,0.1849,0.1868,0.1867,0.1908,0.1845,0.187,0.1871,0.1873,0.1991,0.2002,0.2011,0,0,0,0,0,0.1794,0.1807,0.1794,0.1797,0.1809,0.1832,0.1836,0.1853,0.1863,0.1873,0.1883,0.1864,0.1879,0.1869,0.1867,0.1909,0.1869,0.1871,0.1873,0.1986,0.2,0.2011,0,0,0,0,0,0,0.1799,0.181,0.1797,0.1809,0.1819,0.1836,0.1863,0.1866,0.1883,0.1896,0.188,0.1879,0.1915,0.1886,0.1876,0.1919,0.1869,0.1871,0.1956,0.1968,0.1978,0.1974,0.1844,0,0,0,0,0,0.1798,0.1812,0.1814,0.1825,0.1836,0.1848,0.1864,0.1874,0.1891,0.19,0.1899,0.1902,0.1919,0.1924,0.1924,0.1945,0.1942,0.1967,0.1977,0.1986,0.198,0.2046,0.2062,0.1882,0.1882,0.1881,0,0,0.1803,0.1813,0.1819,0.1829,0.1844,0.1863,0.1859,0.1897,0.1917,0.1896,0.193,0.1941,0.1932,0.1967,0.1978,0.1951,0.2033,0.1989,0.1997,0.1986,0.205,0.2068,0.2084,0.1883,0.1883,0.1883,0,0,0.1826,0.183,0.1846,0.186,0.1889,0.1899,0.1913,0.1935,0.1951,0.1984,0.1983,0.2017,0.2026,0.2036,0.2042,0.21,0.2089,0.21,0.2149,0.2215,0.2231,0.2245,0.226,0.2274,0.2102,0.2102,0.2102,0,0.1826,0.184,0.1856,0.1876,0.1897,0.1917,0.1937,0.196,0.1984,0.2002,0.2009,0.206,0.2061,0.2108,0.2137,0.2127,0.2146,0.2113,0.2232,0.2246,0.2258,0.227,0.2285,0.2108,0.2107,0.2107,0.2106,0,0.1847,0.1868,0.1891,0.1914,0.1938,0.1971,0.1996,0.2026,0.2059,0.2073,0.2134,0.2154,0.218,0.2197,0.2193,0.2275,0.2254,0.2248,0.2211,0.2285,0.2291,0.2304,0.2117,0.2115,0.2113,0.2111,0,0,0.1802,0.1887,0.1891,0.1915,0.1963,0.1985,0.2036,0.2074,0.2113,0.2156,0.2206,0.2262,0.228,0.2285,0.2293,0.235,0.2465,0.2345,0.2346,0.2374,0.259,0.2368,0.236,0.2501,0.2504,0.2507,0.2559,0,0.1802,0.1867,0.19,0.1953,0.1984,0.2027,0.2066,0.211,0.216,0.2212,0.2259,0.2306,0.2311,0.2343,0.241,0.2442,0.2505,0.2449,0.2499,0.2499,0.2307,0.237,0.2198,0.2212,0.2571,0.2573,0.2575,0,0.1777,0.1837,0.1897,0.1981,0.1997,0.2023,0.21,0.2144,0.222,0.2261,0.2329,0.2359,0.2434,0.2442,0.2553,0.2523,0.2573,0.26,0.2603,0.2357,0.2301,0.2194,0.2221,0.2596,0.2594,0.2593,0.2591,0,0.1729,0.1818,0.1876,0.1903,0.1999,0.2027,0.2075,0.215,0.2181,0.229,0.2319,0.2422,0.2454,0.2557,0.259,0.2605,0.2695,0.2719,0.2563,0.2547,0.2382,0.2343,0.2827,0.2827,0.2827,0.2827,0.2826,0,0.1705,0.1745,0.1859,0.1889,0.1938,0.2012,0.2058,0.2126,0.2201,0.2231,0.2335,0.2363,0.2495,0.2541,0.2612,0.2584,0.2714,0.2568,0.2551,0.2412,0.2378,0.2689,0.2673,0.2828,0.2828,0.2828,0.2827,0,0.1635,0.1721,0.1774,0.1884,0.1913,0.1944,0.2018,0.2054,0.2139,0.2185,0.2213,0.232,0.2367,0.2442,0.2569,0.2551,0.2588,0.2555,0.2338,0.2292,0.2403,0.2392,0.2414,0.2406,0.24,0.2395,0.2391,0,0.1607,0.1632,0.1742,0.1772,0.1817,0.1874,0.1907,0.2005,0.2033,0.2136,0.2142,0.2201,0.2194,0.2238,0.225,0.2278,0.2419,0.212,0.2103,0.2382,0.2365,0.2364,0.2361,0.1957,0.1949,0.1943,0.1938,0,0.1535,0.1571,0.163,0.17,0.1739,0.1783,0.1835,0.1835,0.1943,0.1949,0.1959,0.196,0.1969,0.1882,0.1878,0.1899,0.2093,0.1985,0.2386,0.2041,0.1942,0.1927,0.1943,0.1883,0.1889,0.1893,0.1896,0.1898,0.1461,0.148,0.1562,0.1606,0.1663,0.1691,0.1671,0.1699,0.1693,0.1665,0.1732,0.1645,0.1669,0.1527,0.1514,0.1529,0.169,0.1673,0.1699,0.1729,0.1619,0.151,0.1349,0.1352,0.1354,0.1356,0.1357,0,0.138,0.1427,0.1466,0.1519,0.1522,0.161,0.162,0.1555,0.1474,0.1443,0.1374,0.1204,0.1125,0.1187,0.1113,0.1112,0.119,0.109,0.1205,0.1256,0.1303,0.1179,0.079,0.0788,0.0787,0.0786,0,0,0.1357,0.136,0.1381,0.1363,0.1406,0.1394,0.138,0.1273,0.1212,0.105,0.0957,0.097,0.1061,0.0864,0.0872,0.0816,0.1033,0.0785,0.1235,0.1415,0.146,0.1625,0.1487,0,0,0,0,0]},{"header":{"parameterUnit":"m.s-1","parameterCategory":2,"la1":30.2991,"la2":30.254,"lo1":-89.0895,"lo2":-89.0444,"dy":0.0017,"dx":0.0017,"nx":28,"ny":28,"refTime":"2024-06-13T09:00:00:Z","depth":"2","parameterNumber":3,"parameterNumberName":"V-component_of_CURRENTS"},"data":[0,0,0,0,0,0,0,0,0,0,0,0,0,0,0,0,0,0,0,0,0,0,0,0,0,0,0,0,0,0,0,0,0,0,0,0,0,0,0,0,0,0,0,0,0,0,0,0,0,0,0,0,0,0,0,0,0,0,-0.0004,-0.0005,0,0.0007,0.0007,0.0008,0.002,0.002,0.002,0.0019,0.0011,0.0011,0.0011,0,0,0,0,0,0,0,0,0,0,0,0,0,0.0089,0.0087,-0.0004,-0.0005,-0.0005,0.0007,0.0007,0.0008,0.002,0.002,0.0019,0.0019,0.0011,0.0011,0.0011,0,0,0,0,0,0,0,0,0,0,0,0,0,0.0074,0.0086,-0.0004,-0.0001,-0.0002,0.0006,0.0007,0.0008,0.002,0.002,0.0019,0.0019,0.0011,0.0011,0.0011,0.0021,0,0,0.0011,0.0011,0,0,0,0,0,0,0,0,0.0074,0.0071,-0.0002,-0.0002,-0.0002,0.0007,0.0037,0.001,0.002,0.0018,0.0019,0.0019,0.0004,0.0005,0.0016,0.0021,0.002,0.0011,0.0011,0.0011,0.0011,0,0,0,0,0,0,0,0.0075,0.0071,0.0006,-0.0002,-0.0002,0.0034,0.0031,0.0033,0.0017,0.0018,0.0017,0.001,0.0005,0.0016,0.0016,0.002,0.0011,0.0011,0.0011,0.0011,0.0005,0.0005,0,0,0,0,0,0,0.0058,0.0071,0.0005,0.0005,0.003,0.0032,0.0029,0.0009,0.0018,0.0017,0.0011,0.0011,0.0016,0.0016,0.0015,0.0021,0.0011,0.0011,0.0011,0.0006,0.0005,0.0005,0,0,0,0,0,0,0.006,0.0051,0.0004,0.0036,0.0031,0.003,0.0008,0.0009,0.0004,0.0011,0.0012,0.0001,0.0016,0.0015,0.0022,0.0021,0.0011,0.0012,0.0006,0.0005,0.0005,0.0036,0,0,0,0,0,0,0.0062,0.0052,0.0036,0.0033,0.0029,0.0004,0.0008,0.001,-0.0001,-0.0001,0.0004,0.0003,0.0015,0.0022,0.0022,0.0021,0.0012,0.0006,0.0006,0.0005,0.0035,0.0037,0.0038,0,0,0,0,0,0.0065,0.0045,0.0035,0.0027,0.0005,0.0003,0.0005,0.0007,-0.0002,0.0,0.0011,0.0002,0.0019,0.0023,0.0023,0.0021,0.0006,0.0006,0.0005,0.0035,0.0037,0.0038,0,0,0,0,0,0,0.0089,0.0043,0.0033,0.0002,-0.0001,0.0003,-0.0001,-0.0004,0.0007,0.0,0.001,0.0012,0.0018,0.001,0.0014,0.0015,0.0006,0.0006,0.0028,0.003,0.0031,0.0044,0.0012,0,0,0,0,0,0.0082,0.0051,0.0027,0.0008,-0.0004,-0.0006,-0.0008,-0.0011,-0.0007,-0.0004,0.0002,0.0004,0.0018,0.0016,0.0025,0.0026,0.0031,0.002,0.0021,0.0023,0.0031,0.0048,0.0052,0.0003,0.0003,0.0003,0,0,0.0094,0.006,0.0048,0.0011,0.0005,0.0002,-0.0008,-0.002,-0.0009,-0.0008,0.0008,0.0011,0.002,0.0034,0.0033,0.0025,0.0037,0.0022,0.0024,0.0031,0.0048,0.0053,0.0057,0.0003,0.0003,0.0003,0,0,0.0101,0.0061,0.0037,0.0026,-0.0002,-0.0001,-0.0013,-0.0022,-0.0016,-0.0005,0.0005,0.0017,0.0018,0.0043,0.0052,0.0062,0.0048,0.0039,0.0055,0.0071,0.0075,0.008,0.0088,0.0092,0.0035,0.0035,0.0035,0,0.0116,0.0081,0.0039,0.0018,0.0017,-0.0007,-0.0007,-0.0002,0.0001,0.0014,-0.0002,0.0033,0.0034,0.0075,0.0075,0.0069,0.0064,0.0052,0.0075,0.0079,0.0083,0.009,0.0095,0.0037,0.0036,0.0036,0.0036,0,0.0115,0.0086,0.0073,0.0038,0.0033,0.0027,0.0019,0.0021,0.0015,0.0028,0.0054,0.0068,0.0086,0.0082,0.0081,0.0106,0.0089,0.0082,0.0077,0.009,0.0096,0.0101,0.0039,0.0038,0.0038,0.0037,0,0,0.0156,0.0085,0.0083,0.0074,0.0042,0.0045,0.0052,0.0068,0.0085,0.0085,0.0122,0.0138,0.0129,0.0138,0.0135,0.0145,0.0164,0.0114,0.0114,0.0132,0.0185,0.0144,0.0145,0.0152,0.0153,0.0153,0.0178,0,0.0175,0.0145,0.0107,0.0111,0.0102,0.0084,0.01,0.011,0.0118,0.0146,0.0159,0.0181,0.0154,0.0155,0.0164,0.0173,0.0177,0.0157,0.016,0.0161,0.0131,0.0149,0.0144,0.0162,0.0182,0.0183,0.0183,0,0.0195,0.0169,0.0165,0.0145,0.014,0.0144,0.0169,0.0176,0.02,0.0202,0.0219,0.0221,0.0246,0.021,0.0234,0.0215,0.0195,0.0196,0.0197,0.0153,0.0128,0.015,0.0169,0.0191,0.019,0.019,0.0189,0,0.0259,0.0219,0.0221,0.0215,0.0186,0.0192,0.0184,0.0198,0.0214,0.0231,0.0245,0.0269,0.0278,0.0274,0.0256,0.0238,0.0279,0.026,0.021,0.0206,0.0202,0.0196,0.0269,0.0269,0.0269,0.0269,0.0269,0,0.0295,0.0295,0.0248,0.025,0.0263,0.0228,0.025,0.0245,0.0256,0.0295,0.0268,0.0314,0.0287,0.0304,0.0282,0.0263,0.0297,0.0221,0.0214,0.0209,0.0204,0.0227,0.0222,0.027,0.0269,0.0269,0.0269,0,0.0351,0.0317,0.0323,0.0297,0.0286,0.0297,0.0271,0.0296,0.0282,0.0333,0.0336,0.0348,0.036,0.0337,0.0339,0.0291,0.0285,0.0263,0.025,0.024,0.0194,0.019,0.0217,0.0216,0.0215,0.0214,0.0214,0,0.0367,0.0376,0.0366,0.037,0.035,0.0343,0.0346,0.0316,0.0351,0.0377,0.0429,0.0424,0.0458,0.0428,0.0342,0.0288,0.0287,0.0224,0.0188,0.02,0.0191,0.0188,0.0186,0.0197,0.0196,0.0196,0.0195,0,0.0412,0.0418,0.0427,0.0436,0.0436,0.0427,0.0431,0.0459,0.0454,0.0495,0.0566,0.0584,0.052,0.046,0.033,0.0289,0.023,0.0206,0.0249,0.0197,0.018,0.017,0.0169,0.019,0.019,0.0191,0.0191,0.0191,0.0453,0.0483,0.0501,0.0517,0.0513,0.0516,0.0522,0.055,0.0594,0.0638,0.067,0.0671,0.0575,0.0399,0.0313,0.0179,0.0189,0.0145,0.0149,0.0152,0.0132,0.0112,0.0106,0.0106,0.0106,0.0106,0.0106,0,0.0493,0.0535,0.0571,0.0587,0.0601,0.0564,0.059,0.0598,0.0664,0.069,0.0725,0.0623,0.0539,0.0423,0.0217,0.0108,0.0104,0.0078,0.0107,0.0112,0.0118,0.0096,0.006,0.006,0.006,0.0059,0,0,0.0515,0.0577,0.0614,0.0665,0.0662,0.0648,0.0656,0.0671,0.0684,0.0692,0.0676,0.0669,0.055,0.04,0.0269,0.0161,0.0154,0.0131,0.0177,0.0231,0.0237,0.0163,0.0137,0,0,0,0,0]}],[{"header":{"parameterUnit":"m.s-1","parameterCategory":2,"la1":30.2991,"la2":30.254,"lo1":-89.0895,"lo2":-89.0444,"dy":0.0017,"dx":0.0017,"nx":28,"ny":28,"refTime":"2024-06-13T09:00:00:Z","depth":"4","parameterNumber":2,"parameterNumberName":"U-component_of_CURRENTS"},"data":[0,0,0,0,0,0,0,0,0,0,0,0,0,0,0,0,0,0,0,0,0,0,0,0,0,0,0,0,0,0,0,0,0,0,0,0,0,0,0,0,0,0,0,0,0,0,0,0,0,0,0,0,0,0,0,0,0,0,0.0196,0.0195,0,0.0029,0.0027,0.0024,-0.0024,-0.0022,-0.002,-0.0019,0.0007,0.0006,0.0006,0,0,0,0,0,0,0,0,0,0,0,0,0,0.0283,0.0282,0.0196,0.0195,0.0193,0.0029,0.0026,0.0023,-0.0024,-0.0022,-0.002,-0.0018,0.0007,0.0006,0.0006,0,0,0,0,0,0,0,0,0,0,0,0,0,0.0187,0.0282,0.0196,0.0155,0.0151,0.003,0.0026,0.0023,-0.0024,-0.0022,-0.0019,-0.0017,0.0008,0.0007,0.0005,-0.005,0,0,0.0002,0.0001,0,0,0,0,0,0,0,0,0.0193,0.0183,0.0163,0.0158,0.0153,0.0033,0.0067,0.0011,-0.0025,0.0034,-0.0019,-0.0016,0.0037,0.0033,-0.0017,-0.0049,-0.0048,0.0002,0.0001,0.0,0.0,0,0,0,0,0,0,0,0.02,0.0189,0.0122,0.0161,0.0155,0.0081,0.007,0.0054,0.0022,0.0029,0.0027,0.002,0.0035,-0.0016,-0.0016,-0.0047,0.0002,0.0001,-0.0,-0.0001,0.01,0.0103,0,0,0,0,0,0,0.0243,0.0196,0.0128,0.0118,0.0187,0.0079,0.0067,0.0063,0.0018,0.0014,0.0018,0.0018,-0.0015,-0.0015,-0.0015,0.0067,0.0,-0.0001,-0.0001,0.0097,0.0101,0.0104,0,0,0,0,0,0,0.0245,0.0238,0.0135,0.0159,0.0142,0.0077,0.0071,0.0058,0.0043,0.0008,0.0007,0.0022,-0.0013,-0.0013,-0.0006,0.0063,-0.0001,-0.0002,0.0093,0.0098,0.0103,0.0136,0,0,0,0,0,0,0.0248,0.024,0.0246,0.0162,0.0142,0.0088,0.0069,0.0053,0.0036,0.0036,0.0011,0.0013,-0.0011,-0.0004,-0.0007,0.006,-0.0003,0.0088,0.0095,0.0101,0.013,0.0141,0.0151,0,0,0,0,0,0.0252,0.0247,0.0247,0.0239,0.0155,0.0089,0.0071,0.0026,0.0035,0.0023,0.0012,0.0015,0.0038,-0.0006,-0.0009,0.006,0.0085,0.0093,0.01,0.0126,0.0139,0.0151,0,0,0,0,0,0,0.0288,0.0239,0.0239,0.0222,0.0178,0.0085,0.0065,0.0045,0.0015,0.003,0.0009,0.0008,0.0054,0.0053,0.0007,0.0119,0.0083,0.009,0.0104,0.0116,0.0126,0.0135,-0.0004,0,0,0,0,0,0.0302,0.0281,0.0236,0.0219,0.021,0.0147,0.0117,0.0091,0.0055,0.0043,0.0037,0.0055,0.0072,0.009,0.0094,0.0122,0.0107,0.0187,0.0197,0.0205,0.0216,0.0245,0.0257,0.0129,0.0129,0.0129,0,0,0.0305,0.028,0.0267,0.0225,0.0187,0.0166,0.0134,0.0099,0.0089,0.0055,0.006,0.0075,0.0087,0.0123,0.015,0.0136,0.0229,0.0215,0.0221,0.0228,0.0254,0.0266,0.0276,0.0135,0.0134,0.0133,0,0,0.0288,0.0294,0.0268,0.0251,0.0215,0.0182,0.0192,0.0138,0.0128,0.0127,0.0123,0.0164,0.0187,0.0197,0.0211,0.0284,0.0274,0.0334,0.039,0.0418,0.0427,0.0436,0.0394,0.0398,0.0347,0.0347,0.0347,0,0.0311,0.0271,0.0249,0.0236,0.0231,0.0209,0.0198,0.0173,0.0132,0.0149,0.0157,0.022,0.0221,0.0272,0.0309,0.0304,0.0304,0.0328,0.0426,0.0434,0.0442,0.0397,0.0402,0.035,0.035,0.0349,0.0349,0,0.0268,0.0258,0.0249,0.0236,0.0229,0.0213,0.0206,0.0219,0.0238,0.023,0.0298,0.0291,0.0347,0.0372,0.0358,0.0443,0.0415,0.042,0.0379,0.0456,0.0405,0.0408,0.0353,0.0353,0.0352,0.0351,0,0,0.0293,0.0229,0.0236,0.0238,0.0236,0.0229,0.0251,0.0262,0.0308,0.032,0.0381,0.0419,0.0454,0.0474,0.0481,0.0509,0.0539,0.0507,0.0507,0.0436,0.0566,0.0555,0.0556,0.0573,0.0575,0.0577,0.0492,0,0.028,0.0232,0.022,0.0226,0.0217,0.0248,0.0278,0.0304,0.0342,0.0402,0.0435,0.0498,0.0481,0.0537,0.0561,0.0555,0.056,0.0559,0.053,0.0527,0.0484,0.0565,0.0583,0.0495,0.0495,0.0496,0.0496,0,0.0257,0.0234,0.0201,0.0233,0.0244,0.0273,0.0362,0.0383,0.0463,0.0502,0.0577,0.0606,0.0655,0.0642,0.0646,0.0657,0.0625,0.0601,0.0598,0.0583,0.0526,0.0417,0.0502,0.0502,0.0501,0.0501,0.0501,0,0.0248,0.0244,0.0214,0.0223,0.0247,0.0298,0.0354,0.0435,0.0461,0.0586,0.063,0.0698,0.0737,0.0734,0.0706,0.069,0.0699,0.0657,0.0593,0.0587,0.0598,0.0591,0.066,0.066,0.0661,0.0661,0.0661,0,0.023,0.0236,0.0227,0.0216,0.0274,0.0326,0.0409,0.0477,0.0565,0.0619,0.0695,0.0741,0.0776,0.0784,0.074,0.0691,0.0722,0.0616,0.0591,0.061,0.0606,0.0597,0.0591,0.0658,0.0658,0.0659,0.0659,0,0.0222,0.0187,0.0172,0.021,0.0245,0.0307,0.0413,0.0479,0.0569,0.0644,0.0687,0.0771,0.0812,0.0804,0.0798,0.0722,0.0683,0.0652,0.0653,0.0627,0.052,0.0517,0.0541,0.0541,0.054,0.054,0.054,0,0.0203,0.0173,0.016,0.0175,0.0206,0.0301,0.0368,0.0472,0.0533,0.0649,0.0683,0.0765,0.0815,0.0772,0.0782,0.0707,0.0687,0.0621,0.0591,0.0547,0.052,0.0518,0.0516,0.0539,0.0539,0.0539,0.0538,0,0.0191,0.0162,0.0142,0.0139,0.0199,0.0249,0.0362,0.0395,0.0526,0.0592,0.0677,0.0705,0.0752,0.0762,0.0744,0.0679,0.0649,0.0614,0.0613,0.0584,0.0544,0.0518,0.0516,0.0537,0.0537,0.0537,0.0537,0,0.0198,0.0172,0.0105,0.0132,0.0165,0.02,0.0264,0.0366,0.0423,0.0575,0.0606,0.0694,0.0776,0.0747,0.0722,0.0691,0.0634,0.0545,0.0546,0.0547,0.0594,0.0547,0.0537,0,0,0,0,0,0.0221,0.0156,0.0127,0.0107,0.0128,0.0155,0.0255,0.0326,0.0458,0.0505,0.0554,0.0613,0.0628,0.0664,0.0623,0.0668,0.0607,0.0608,0.0498,0.0528,0.053,0.0587,0,0,0,0,0,0,0.0222,0.0158,0.0097,0.0071,0.0082,0.0107,0.0172,0.0265,0.0305,0.0442,0.0472,0.0539,0.0577,0.0655,0.0607,0.0608,0.0509,0.0653,0.065,0.0527,0.0529,0.053,0.0589,0,0,0,0,0]},{"header":{"parameterUnit":"m.s-1","parameterCategory":2,"la1":30.2991,"la2":30.254,"lo1":-89.0895,"lo2":-89.0444,"dy":0.0017,"dx":0.0017,"nx":28,"ny":28,"refTime":"2024-06-13T09:00:00:Z","depth":"4","parameterNumber":3,"parameterNumberName":"V-component_of_CURRENTS"},"data":[0,0,0,0,0,0,0,0,0,0,0,0,0,0,0,0,0,0,0,0,0,0,0,0,0,0,0,0,0,0,0,0,0,0,0,0,0,0,0,0,0,0,0,0,0,0,0,0,0,0,0,0,0,0,0,0,0,0,0.0384,0.0385,0,0.0447,0.0447,0.0448,0.0526,0.0528,0.0529,0.053,0.0754,0.0758,0.0763,0,0,0,0,0,0,0,0,0,0,0,0,0,0.0315,0.0315,0.0384,0.0385,0.0386,0.0447,0.0447,0.0448,0.0526,0.0528,0.0529,0.0531,0.0752,0.0758,0.0763,0,0,0,0,0,0,0,0,0,0,0,0,0,0.0357,0.0316,0.0384,0.0433,0.0438,0.0447,0.0447,0.0448,0.0526,0.0528,0.053,0.0532,0.075,0.0757,0.0764,0.0768,0,0,0.0786,0.0789,0,0,0,0,0,0,0,0,0.0354,0.0359,0.0424,0.0429,0.0435,0.0482,0.0505,0.0564,0.0525,0.0491,0.053,0.0533,0.0677,0.069,0.0694,0.0778,0.0788,0.0786,0.0791,0.0794,0.0796,0,0,0,0,0,0,0,0.0351,0.0357,0.0408,0.0425,0.0432,0.0446,0.0454,0.0516,0.0574,0.0494,0.05,0.0508,0.0681,0.0686,0.07,0.0791,0.0786,0.0793,0.0797,0.08,0.0917,0.0916,0,0,0,0,0,0,0.0344,0.0354,0.0406,0.041,0.04,0.0445,0.0455,0.0464,0.057,0.0587,0.0506,0.0512,0.0673,0.0692,0.0709,0.078,0.0794,0.08,0.0804,0.0919,0.0917,0.0916,0,0,0,0,0,0,0.0342,0.0348,0.0403,0.0384,0.0392,0.0445,0.0454,0.0464,0.0497,0.0578,0.0599,0.0533,0.0676,0.0699,0.0798,0.0788,0.0804,0.081,0.092,0.0918,0.0917,0.0886,0,0,0,0,0,0,0.034,0.0347,0.0356,0.0384,0.0393,0.0427,0.0453,0.0464,0.0498,0.0506,0.0607,0.0628,0.0679,0.0787,0.0805,0.0798,0.0815,0.0921,0.0919,0.0917,0.0888,0.0883,0.0879,0,0,0,0,0,0.0337,0.0345,0.0356,0.0363,0.0403,0.0427,0.0434,0.0476,0.0497,0.0513,0.0591,0.0626,0.0784,0.0794,0.0815,0.0809,0.0922,0.092,0.0917,0.089,0.0884,0.0879,0,0,0,0,0,0,0.0328,0.0354,0.0368,0.0386,0.0411,0.0441,0.046,0.0482,0.0549,0.0569,0.0645,0.0672,0.0743,0.0777,0.0785,0.0828,0.0845,0.0847,0.0817,0.0812,0.0808,0.08,0.0821,0,0,0,0,0,0.0324,0.0336,0.0364,0.038,0.0393,0.0426,0.0443,0.0469,0.0525,0.0556,0.0629,0.0691,0.0738,0.0783,0.0834,0.0882,0.0864,0.0877,0.0872,0.0869,0.0872,0.082,0.0812,0.0908,0.0908,0.0908,0,0,0.0326,0.0341,0.035,0.0378,0.0401,0.0425,0.0442,0.0473,0.0499,0.0572,0.065,0.0693,0.0748,0.0796,0.0827,0.0835,0.0827,0.0865,0.0862,0.0868,0.0817,0.0808,0.0799,0.0906,0.0906,0.0907,0,0,0.0334,0.0347,0.0363,0.0385,0.0418,0.0432,0.0444,0.0488,0.0518,0.0588,0.0627,0.0668,0.077,0.0784,0.0807,0.0804,0.0805,0.0812,0.0794,0.0744,0.0735,0.0728,0.0676,0.0664,0.0809,0.0809,0.0809,0,0.0333,0.0363,0.0372,0.0397,0.0418,0.0438,0.0465,0.0487,0.0562,0.0584,0.0619,0.0707,0.0753,0.0776,0.0772,0.0795,0.077,0.0817,0.0738,0.073,0.0723,0.0672,0.0659,0.0807,0.0807,0.0808,0.0808,0,0.0363,0.0388,0.04,0.0434,0.045,0.0477,0.0503,0.0532,0.0568,0.0593,0.0641,0.0689,0.0738,0.0734,0.0768,0.0731,0.073,0.0738,0.0753,0.0711,0.066,0.0647,0.0805,0.0805,0.0806,0.0806,0,0,0.0349,0.0409,0.0413,0.0438,0.0475,0.0488,0.052,0.0548,0.0571,0.062,0.0645,0.0688,0.07,0.0722,0.0737,0.0693,0.0613,0.0699,0.0697,0.065,0.0498,0.048,0.0464,0.061,0.0608,0.0607,0.0476,0,0.0371,0.0421,0.0443,0.0485,0.0512,0.0532,0.0561,0.0584,0.0611,0.0641,0.0645,0.0688,0.0696,0.072,0.0672,0.0641,0.0582,0.0648,0.0544,0.0541,0.0531,0.045,0.0601,0.0467,0.0464,0.0462,0.046,0,0.0392,0.0422,0.0478,0.0516,0.0529,0.0562,0.0591,0.0621,0.0644,0.0665,0.0678,0.0694,0.0661,0.0668,0.0562,0.0608,0.0549,0.0507,0.0501,0.049,0.0499,0.052,0.0438,0.044,0.0441,0.0443,0.0444,0,0.0376,0.0434,0.0479,0.0501,0.0556,0.0586,0.0613,0.0643,0.0658,0.0686,0.0687,0.0668,0.0655,0.058,0.0512,0.0532,0.0378,0.0393,0.031,0.0309,0.0383,0.0392,0.029,0.029,0.029,0.029,0.0291,0,0.0386,0.0411,0.0489,0.0518,0.0566,0.0603,0.0646,0.067,0.0691,0.0696,0.0706,0.0687,0.063,0.0552,0.0487,0.0356,0.0351,0.0286,0.0265,0.037,0.038,0.0372,0.0384,0.0286,0.0287,0.0288,0.0288,0,0.0361,0.0416,0.0469,0.0546,0.057,0.0612,0.0664,0.0687,0.0707,0.0706,0.0713,0.0676,0.0579,0.0502,0.0372,0.0315,0.0207,0.0162,0.027,0.0262,0.0173,0.0185,0.004,0.0038,0.0036,0.0035,0.0034,0,0.0355,0.0391,0.0484,0.0532,0.058,0.0641,0.068,0.0706,0.0716,0.0692,0.068,0.0603,0.0567,0.0358,0.029,0.0141,0.0131,0.0072,0.0125,0.0149,0.0143,0.0157,0.017,0.0031,0.0031,0.003,0.003,0,0.0345,0.0392,0.0434,0.0523,0.0588,0.0634,0.0685,0.0677,0.0694,0.0701,0.0633,0.0555,0.0435,0.0329,0.0215,0.0118,0.0113,0.0054,0.0058,0.0107,0.0137,0.0136,0.0151,0.0024,0.0025,0.0025,0.0026,0,0.033,0.0362,0.043,0.0501,0.0573,0.0611,0.0639,0.0642,0.0637,0.0616,0.0591,0.0498,0.0461,0.0313,0.021,0.0112,0.0091,0.0071,0.0073,0.0078,0.0145,0.0192,0.0054,0,0,0,0,0,0.0322,0.0351,0.0407,0.0477,0.054,0.0582,0.0629,0.065,0.0655,0.0603,0.0594,0.0494,0.0343,0.029,0.0181,0.0173,0.0071,0.0043,0.0049,-0.0008,-0.0001,0.0072,0,0,0,0,0,0,0.0319,0.0359,0.0382,0.0427,0.048,0.0529,0.0566,0.0579,0.0549,0.0557,0.048,0.0467,0.0323,0.04,0.0178,0.0151,0.0139,-0.0014,-0.0016,-0.0011,-0.0005,0.0,0.0077,0,0,0,0,0]}]]